| time (UTC) | temp C | wind direction | speed KPH | gust KPH | rain 1hr cm | rain 24hr cm | rain mn cm | humidity % | barometer mb |
| 20260506113003 | 13 | 345 | 4.8 | 14.5 | 0.00 | 0.00 | 0.00 | 83 | 1008.3 |
| 20260506111600 | 13 | 355 | 8.0 | 17.7 | 0.00 | 0.00 | 0.00 | 83 | 1008.2 |
| 20260506104555 | 14 | 355 | 6.4 | 9.7 | 0.00 | 0.00 | 0.00 | 82 | 1007.5 |
| 20260506103052 | 14 | 355 | 6.4 | 9.7 | 0.00 | 0.00 | 0.00 | 82 | 1007.2 |
| 20260506101601 | 14 | 349 | 4.8 | 9.7 | 0.00 | 0.00 | 0.00 | 82 | 1007.2 |
| 20260506100049 | 15 | 351 | 6.4 | 12.9 | 0.00 | 0.00 | 0.00 | 82 | 1007.0 |
| 20260506094605 | 15 | 350 | 4.8 | 14.5 | 0.00 | 0.00 | 0.00 | 82 | 1006.6 |
| 20260506093052 | 15 | 355 | 6.4 | 9.7 | 0.00 | 0.00 | 0.00 | 81 | 1006.5 |
| 20260506091543 | 15 | 355 | 4.8 | 9.7 | 0.00 | 0.00 | 0.00 | 81 | 1006.5 |
| 20260506090042 | 15 | 355 | 6.4 | 12.9 | 0.00 | 0.00 | 0.00 | 82 | 1006.5 |
| 20260506084541 | 15 | 355 | 4.8 | 14.5 | 0.00 | 0.00 | 0.00 | 82 | 1006.3 |
| 20260506083040 | 15 | 355 | 4.8 | 16.1 | 0.00 | 0.00 | 0.00 | 82 | 1006.3 |
| 20260506081539 | 15 | 350 | 4.8 | 14.5 | 0.00 | 0.00 | 0.00 | 81 | 1006.3 |
| 20260506073029 | 16 | 355 | 3.2 | 8.0 | 0.00 | 0.00 | 0.00 | 81 | 1005.9 |
| 20260506071532 | 16 | 355 | 4.8 | 8.0 | 0.00 | 0.00 | 0.00 | 81 | 1005.7 |
| 20260506061529 | 17 | 355 | 4.8 | 12.9 | 0.00 | 0.00 | 0.00 | 78 | 1005.8 |
| 20260506044506 | 19 | 355 | 3.2 | 9.7 | 0.00 | 0.00 | 0.00 | 75 | 1005.6 |
| 20260506043006 | 20 | 355 | 4.8 | 14.5 | 0.00 | 0.00 | 0.00 | 75 | 1005.6 |
| 20260506041504 | 20 | 355 | 4.8 | 19.3 | 0.00 | 0.00 | 0.00 | 74 | 1005.5 |
| 20260506040002 | 20 | 350 | 4.8 | 14.5 | 0.00 | 0.00 | 0.00 | 74 | 1005.3 |
| 20260506034501 | 20 | 348 | 4.8 | 14.5 | 0.00 | 0.00 | 0.00 | 73 | 1005.4 |
| 20260506033100 | 20 | 360 | 3.2 | 9.7 | 0.00 | 0.00 | 0.00 | 73 | 1005.2 |
| 20260506031605 | 21 | 360 | 1.6 | 6.4 | 0.00 | 0.00 | 0.00 | 72 | 1004.7 |
| 20260506030055 | 21 | 360 | 3.2 | 8.0 | 0.00 | 0.00 | 0.00 | 72 | 1004.1 |
| 20260506024555 | 22 | 360 | 0.0 | 12.9 | 0.00 | 0.00 | 0.00 | 71 | 1003.9 |
| 20260506023054 | 22 | 355 | 4.8 | 12.9 | 0.00 | 0.00 | 0.00 | 70 | 1003.8 |
| 20260506021558 | 23 | 346 | 6.4 | 12.9 | 0.00 | 0.00 | 0.00 | 69 | 1003.0 |
| 20260506020055 | 24 | 355 | 11.3 | 20.9 | 0.00 | 0.00 | 0.00 | 67 | 1002.8 |
| 20260506014552 | 25 | 345 | 8.0 | 17.7 | 0.00 | 0.00 | 0.00 | 69 | 1002.1 |
| 20260506013051 | 26 | 155 | 1.6 | 4.8 | 0.00 | 0.00 | 0.00 | 75 | 1001.4 |
| 20260506011553 | 26 | 153 | 0.0 | 3.2 | 0.00 | 0.00 | 0.00 | 74 | 1001.0 |
| 20260506010055 | 27 | 155 | 3.2 | 8.0 | 0.00 | 0.00 | 0.00 | 72 | 1000.7 |
| 20260506004551 | 27 | 155 | 4.8 | 9.7 | 0.00 | 0.00 | 0.00 | 67 | 1000.8 |
| 20260506003049 | 28 | 155 | 0.0 | 0.0 | 0.00 | 0.00 | 0.00 | 67 | 1000.5 |
| 20260506001549 | 29 | 155 | 0.0 | 1.6 | 0.00 | 0.00 | 0.00 | 64 | 1000.7 |
| 20260506000048 | 30 | 155 | 0.0 | 3.2 | 0.00 | 0.00 | 0.00 | 58 | 1000.8 |
| 20260505234556 | 30 | 151 | 0.0 | 3.2 | 0.00 | 0.00 | 0.00 | 58 | 1000.9 |
| 20260505233057 | 31 | 151 | 3.2 | 8.0 | 0.00 | 0.00 | 0.00 | 54 | 1000.8 |
| 20260505231551 | 31 | 151 | 4.8 | 9.7 | 0.00 | 0.00 | 0.00 | 50 | 1000.7 |
| 20260505230044 | 31 | 151 | 0.0 | 9.7 | 0.00 | 0.00 | 0.00 | 49 | 1000.7 |
| 20260505224543 | 32 | 151 | 1.6 | 9.7 | 0.00 | 0.00 | 0.00 | 46 | 1000.9 |
| 20260505223050 | 32 | 151 | 4.8 | 12.9 | 0.00 | 0.00 | 0.00 | 47 | 1000.9 |
| 20260505221541 | 32 | 151 | 3.2 | 8.0 | 0.00 | 0.00 | 0.00 | 49 | 1000.7 |
| 20260505220042 | 32 | 151 | 1.6 | 11.3 | 0.00 | 0.00 | 0.00 | 52 | 1000.7 |
| 20260505214547 | 31 | 151 | 3.2 | 11.3 | 0.00 | 0.00 | 0.00 | 51 | 1000.8 |
| 20260505213037 | 31 | 150 | 4.8 | 9.7 | 0.00 | 0.00 | 0.00 | 56 | 1000.9 |
| 20260505211536 | 31 | 150 | 6.4 | 12.9 | 0.00 | 0.00 | 0.00 | 51 | 1000.9 |
| 20260505210034 | 31 | 148 | 8.0 | 12.9 | 0.00 | 0.00 | 0.00 | 54 | 1001.1 |
| 20260505204535 | 31 | 172 | 4.8 | 12.9 | 0.00 | 0.00 | 0.00 | 51 | 1001.5 |
| 20260505203032 | 31 | 175 | 3.2 | 9.7 | 0.00 | 0.00 | 0.00 | 56 | 1001.6 |
| 20260505201527 | 31 | 159 | 3.2 | 17.7 | 0.00 | 0.00 | 0.00 | 53 | 1001.7 |
| 20260505200036 | 31 | 165 | 6.4 | 12.9 | 0.00 | 0.00 | 0.00 | 58 | 1001.9 |
| 20260505194522 | 31 | 160 | 6.4 | 17.7 | 0.00 | 0.00 | 0.00 | 59 | 1002.0 |
| 20260505193021 | 31 | 164 | 9.7 | 16.1 | 0.00 | 0.00 | 0.00 | 59 | 1002.2 |
| 20260505191520 | 30 | 169 | 8.0 | 14.5 | 0.00 | 0.00 | 0.00 | 62 | 1002.3 |
| 20260505190024 | 30 | 167 | 9.7 | 17.7 | 0.00 | 0.00 | 0.00 | 63 | 1002.4 |
| 20260505184515 | 30 | 163 | 11.3 | 16.1 | 0.00 | 0.00 | 0.00 | 64 | 1002.5 |
| 20260505183012 | 29 | 169 | 11.3 | 16.1 | 0.00 | 0.00 | 0.00 | 65 | 1002.7 |
| 20260505181511 | 28 | 176 | 8.0 | 16.1 | 0.00 | 0.00 | 0.00 | 66 | 1003.0 |
| 20260505180010 | 28 | 165 | 11.3 | 17.7 | 0.00 | 0.00 | 0.00 | 66 | 1003.1 |
| 20260505174508 | 28 | 144 | 8.0 | 17.7 | 0.00 | 0.00 | 0.00 | 69 | 1003.0 |
| 20260505173005 | 28 | 162 | 12.9 | 22.5 | 0.00 | 0.00 | 0.00 | 68 | 1003.1 |
| 20260505171506 | 27 | 173 | 12.9 | 19.3 | 0.00 | 0.00 | 0.00 | 69 | 1003.4 |
| 20260505170100 | 27 | 177 | 11.3 | 16.1 | 0.00 | 0.00 | 0.00 | 70 | 1003.3 |
| 20260505164620 | 27 | 167 | 9.7 | 19.3 | 0.00 | 0.00 | 0.00 | 71 | 1003.2 |
| 20260505163102 | 26 | 183 | 11.3 | 19.3 | 0.00 | 0.00 | 0.00 | 75 | 1003.1 |
| 20260505161605 | 25 | 171 | 12.9 | 17.7 | 0.00 | 0.00 | 0.00 | 75 | 1003.1 |
| 20260505153045 | 24 | 172 | 12.9 | 17.7 | 0.00 | 0.00 | 0.00 | 77 | 1003.2 |
| 20260505151546 | 24 | 159 | 11.3 | 19.3 | 0.00 | 0.00 | 0.00 | 79 | 1003.4 |
| 20260505124524 | 19 | 174 | 6.4 | 9.7 | 0.00 | 0.00 | 0.00 | 92 | 1002.8 |
| 20260505123022 | 18 | 175 | 6.4 | 9.7 | 0.00 | 0.00 | 0.00 | 91 | 1002.6 |
| 20260505121520 | 18 | 175 | 4.8 | 8.0 | 0.00 | 0.00 | 0.00 | 92 | 1002.4 |
| 20260505120022 | 18 | 175 | 4.8 | 9.7 | 0.00 | 0.00 | 0.00 | 91 | 1002.2 |
| 20260505114519 | 18 | 175 | 4.8 | 8.0 | 0.00 | 0.00 | 0.00 | 91 | 1002.1 |